Location: Cactus School
(34.5700°N, 118.0931°W)
Time: 15:04:50
(UTC-07:00)

ITUPSAT 1 - Visible Passes

Search period start: 27 May 2024 00:00
Search period end: 06 June 2024 00:00
Orbit: 694 x 707 km, 98.5° (Epoch: 26 May)

Date Brightness Start Highest point End Pass type
(mag) Time Alt. Az. Time Alt. Az. Time Alt. Az.
27 May ? 22:36:22 10° NNE 22:39:46 41° NE 22:39:46 41° NE visible
28 May ? 00:15:43 10° NW 00:18:11 14° WNW 00:18:37 14° WNW visible
28 May ? 21:43:04 10° ENE 21:43:36 11° ENE 21:43:36 11° ENE visible
28 May ? 23:18:27 10° N 23:22:27 49° NW 23:22:27 49° NW visible
29 May ? 22:23:08 10° NNE 22:26:17 31° ENE 22:26:17 31° ENE visible
30 May ? 00:01:32 10° NNW 00:04:54 20° WNW 00:05:07 19° WNW visible
30 May ? 23:04:56 10° N 23:08:57 61° NNW 23:08:57 61° NNW visible
31 May ? 22:10:04 10° NE 22:12:45 23° ENE 22:12:45 23° ENE visible
31 May ? 23:47:38 10° NNW 23:51:35 27° WNW 23:51:37 27° WNW visible
01 Jun ? 22:51:30 10° NNE 22:55:26 59° NE 22:55:26 59° NE visible
02 Jun ? 21:57:11 10° NE 21:59:14 17° ENE 21:59:14 17° ENE visible
02 Jun ? 23:33:53 10° N 23:38:05 37° WNW 23:38:05 37° WNW visible
03 Jun ? 22:38:08 10° NNE 22:41:54 46° ENE 22:41:54 46° ENE visible
04 Jun ? 00:17:34 10° NW 00:19:59 14° WNW 00:20:44 13° WNW visible
04 Jun ? 21:44:44 10° ENE 21:45:42 12° ENE 21:45:42 12° ENE visible
04 Jun ? 23:20:14 10° N 23:24:33 51° WNW 23:24:33 51° WNW visible
05 Jun ? 22:24:53 10° NNE 22:28:21 34° ENE 22:28:21 34° ENE visible
